Weather in Alol

Russia / Pskov Oblast     56°27′20″N   29°06′55″E
temp.,
°C
wind,
m/s
gust,
m/s
humid.,
%
clouds,
%
prec.,
mm/h
press.,
hPa
HPBL,
m
2 july, sat
sat200:00+19e227216 0.0 102017
03:00+16se38886 0.0 1022159
06:00+17se27875 0.0 1022210
09:00+22sse235883 0.0 1022442
12:00+27sse224598 0.0 10211218
15:00+29ssw123839 0.0 10202122
18:00+29s1239100 0.0 10192196
21:00+23w1166100 0.0 101913
3 july, sun
sun300:00+21sw1170100 0.0 101913
03:00+21sw2372100 0.0 101965
06:00+20sw248294 0.0 101997
09:00+24w236678 0.0 1019458
12:00+28sw2342100 0.0 10181982
15:00+30wsw233479 0.0 10172899
18:00+28nw334928 0.0 10171232
21:00+21wnw238196 0.5 101845
4 july, mon
mon400:00+19nw119331 0.1 101811
03:00+17w00955 0.3 101811
06:00+18sw119450 0.0 101836
09:00+23sw23759 0.0 1018463
12:00+28wsw34465 0.0 10171886
15:00+26wsw2456100 0.0 1016346
18:00+27sw245242 0.0 1015484
21:00+23sw2571100 0.0 1016104
5 july, tue
tue500:00+20wsw227899 0.0 101635
03:00+18ssw228898 0.0 101620
06:00+19sw148660 0.0 1016134
09:00+23wsw2468100 0.0 1016677
12:00+26w3448100 0.0 10161620
15:00+27wnw344015 0.0 10152072
18:00+26nnw334888 0.0 10141199
21:00+21nw1474100 0.9 1015151
6 july, wed
wed600:00+18w2291100 1.0 101653
03:00+16nw2790100 1.1 1016235
06:00+16wnw1187100 0.0 101530
09:00+19wnw2471100 0.0 1015621
12:00+22wsw4544100 0.0 10151478
15:00+24w5735100 0.0 10142234
18:00+22w4644100 0.0 10132269
21:00+17sw277229 0.0 1013218